Track FAST 1 (USA 222) now! 10-day predictions FAST 1 (USA 222) is classified as:
1 37227U 10062F 26249.58395058 .00000352 00000-0 47834-4 0 9996 2 37227 71.9671 313.8995 0016233 314.5390 45.4449 14.85370192377953